Regional Weather Roundup
Issued by NWS Wakefield, VA

Current Version | Previous Version | Text Only | Print | Product List | Glossary Off
Versions: 1 2 3 4 5 6 7 8 9 10 11 12 13 14 15 16 17 18 19 20 21 22 23 24 25 26 27 28 29 30 31 32 33 34 35 36 37 38 39 40 41 42 43 44 45 46 47 48 49 50

000
ASUS41 KAKQ 251916
RWRAKQ

REGIONAL WEATHER ROUNDUP
NATIONAL WEATHER SERVICE WAKEFIELD VA
200 PM EST TUE FEB 25 2020

Note: "fair" indicates few or no clouds below 12,000 feet with no
significant weather and/or obstructions to visibility. * = Denotes
station may not report precipitation (e.g., rain,snow,etc.),
thunder or fog.

VAZ042-051-052>054-056-252000-
NORTHERN VIRGINIA

CITY           SKY/WX    TMP DP  RH WIND       PRES   REMARKS
WASH NATIONAL  CLOUDY    53  50  89 S6        29.78F
DULLES         CLOUDY    50  47  89 CALM      29.77F
FORT BELVOIR   NOT AVBL
QUANTICO       CLOUDY    49  47  93 S3        29.78F FOG
FREDERICKSBRG* CLOUDY    54  53  95 S5        29.77F
STAFFORD*      CLOUDY    55  55 100 S3        29.81F
WARRENTON      CLOUDY    54  49  85 CALM      29.76F
CULPEPER*      CLOUDY    54  49  86 S3        29.77F
MANASSAS*      CLOUDY    52  49  89 CALM      29.77F
LEESBURG*      CLOUDY    46  46 100 CALM      29.78F
WINCHESTER     CLOUDY    48  45  87 NE3       29.75S
FRONT ROYAL*   CLOUDY    52  46  82 N3        29.75S
LURAY*         MOCLDY    61  50  67 CALM      29.73S
$$

VAZ048-049-060>072-079>083-252000-
CENTRAL AND SOUTH CENTRAL VIRGINIA

CITY           SKY/WX    TMP DP  RH WIND       PRES   REMARKS
RICHMOND       CLOUDY    56  55  97 W7        29.78F
CHESTERFIELD*  CLOUDY    57  55  94 VRB7      29.78S
PETERSBURG*    CLOUDY    60  55  84 SW7       29.79F
HANOVER        CLOUDY    55  52  89 SW5       29.79F
TAPPAHANNOCK*  PTSUNNY   54  54 100 W3        29.79F FOG
QUINTON*       CLOUDY    57  57 100 SW3       29.77F
CHARLOTTSVILLE CLOUDY    53  48  83 VRB5      29.76S
GORDONSVILLE*  CLOUDY    53  52  94 SW6       29.76F
ORANGE*        CLOUDY    52  48  87 S6        29.76F
LOUISA*        CLOUDY    53  49  88 SW7       29.80F
BUMPASS*       CLOUDY    54  51  91 SW7       29.76F
FARMVILLE*     CLOUDY    54  50  87 SW8       29.77F
CREWE*         CLOUDY    55  52  91 SW6       29.78F
FORT PICKETT*  CLOUDY    60  58  96 W8        29.78F
CHASE CITY*    CLOUDY    57  53  85 W3        29.79F
CLARKSVILLE*   CLOUDY    61  55  82 W12G20    29.78F
SOUTH HILL*    CLOUDY    61  55  82 SW10G20   29.84F
LAWRENCEVILLE* CLOUDY    60  56  85 S9        29.79F
EMPORIA*         N/A     58  57  96 MISG        N/A
$$

VAZ088>098-252000-
SOUTHEAST VIRGINIA

CITY           SKY/WX    TMP DP  RH WIND       PRES   REMARKS
NORFOLK        CLOUDY    64  57  78 S12       29.78F
VIRGINIA BEACH CLOUDY    63  56  78 SW13      29.78F
NORFOLK NAVAL  CLOUDY    63  57  81 SW6       29.80F
WEST POINT*    CLOUDY    58  57  98 SW5       29.79F
SALUDA*        CLOUDY    57  57 100 CALM      29.78S
NEWPORT NEWS   CLOUDY    62  56  80 S10       29.78F
LANGLEY AFB    CLOUDY    61  61 100 S10       29.78F
FORT EUSTIS    CLOUDY    60  56  86 S8        29.76F
WILLIAMSBURG*  PTSUNNY   61  59  94 CALM      29.79F
HR EXEC AP*    CLOUDY    62  56  80 SW9G18    29.80F
FRANKLIN*      CLOUDY    60  59  97 S6        29.80F FOG
US460-WAKEFLD  CLOUDY    60  57  89 VRB3      29.79F
$$

VAZ020-022-025-037-045-252000-
WEST CENTRAL AND SOUTHWEST VIRGINIA

CITY           SKY/WX    TMP DP  RH WIND       PRES   REMARKS
STAUNTON*      NOT AVBL
WAYNESBORO*    MOCLDY    61  49  65 SW8       29.73F
HOT SPRINGS VA CLOUDY    47  46  94 W14       29.76F
LYNCHBURG      CLOUDY    55  49  80 S5        29.77F
DANVILLE         N/A    N/A N/A N/A MISG      29.78F
SOUTH BOSTON*  CLOUDY    59  53  80 W5        29.79S
MARTINSVILLE   FAIR      57  51  78 SW5       29.81F
ROANOKE        PTSUNNY   58  49  72 SE8       29.77F
BLACKSBURG     PTSUNNY   63  48  59 W12G17    29.79F
DUBLIN*        PTSUNNY   63  49  60 W10G18    29.77F
MARION*        CLOUDY    60  52  74 W17       29.80F
HILLSVILLE*    PTSUNNY   60  46  59 SW7       29.76F
RICHLANDS*     CLOUDY    53  46  76 SW10G22   29.79S
WISE*          CLOUDY    52  45  76 SW14G22   29.79S
ABINGDON*      CLOUDY    56  47  71 W10G16    29.80F
$$

MDZ021>025-VAZ099-100-252000-
SOUTHERN MARYLAND AND THE DELMARVA PENINSULA

CITY           SKY/WX    TMP DP  RH WIND       PRES   REMARKS
PATUXENT RIVER FOG       51  50  96 CALM      29.78F VSB 1/2
BAY BRIDGE APT CLOUDY    52 N/A N/A S6        29.79F HAZE
LEONARDTOWN    CLOUDY    50  48  93 CALM      29.80F
DOVER          CLOUDY    47  47 100 E9        29.78F FOG
GEORGETOWN     LGT RAIN  53  52  96 SE6       29.78F FOG
EASTON         CLOUDY    54  52  94 S3        29.82F FOG
CAMBRIDGE      CLOUDY    54  54 100 S5        29.78F FOG
SALISBURY      CLOUDY    56  53  90 S6        29.78F
TANGIER        NOT AVBL
OCEAN CITY     CLOUDY    50  49  96 VRB3      29.79F FOG
WALLOPS ISLAND FOG       52  52 100 S10       29.79F VSB 1/4
ACCOMACK*      CLOUDY    56  55  94 S13       29.78F
$$

NCZ012>017-030>032-252000-
NORTH CENTRAL AND EASTERN NORTH CAROLINA

CITY           SKY/WX    TMP DP  RH WIND       PRES   REMARKS
ROANOKE RAPIDS CLOUDY    59  59 100 SW6       29.80F
RALEIGH        CLOUDY    62  57  83 SW12      29.81F
ELIZABETH CITY CLOUDY    65  57  75 S10       29.80F
AHOSKIE*       CLOUDY    61  59  92 SW5       29.80F
EDENTON*       CLOUDY    66  62  86 SW9       29.82F
CURRITUCK*     CLOUDY    62  59  88 S12       29.80F
KILL DEVIL HLS FAIR      62  59  91 S3        29.81F
MANTEO         FAIR      59  56  92 SW10      29.83F
CAPE HATTERAS  FAIR      65  60  84 SW8       29.84F HAZE
TARBORO*       CLOUDY    63  58  83 SW6       29.81F
GOLDSBORO      CLOUDY    66  58  75 SW16      29.80F
WASHINGTON     CLOUDY    65  58  77 S7        29.81F
GREENVILLE     CLOUDY    66  59  77 W7        29.84F
NEW BERN       PTSUNNY   68  59  73 W8        29.83F
WILMINGTON     FAIR      68  60  75 SW9       29.83F
$$

VAZ048-252000-
ELSEWHERE

CITY           SKY/WX    TMP DP  RH WIND       PRES   REMARKS
HARRISBURG PA  CLOUDY    50  44  80 E6        29.79F HAZE
BALTIMORE      DRIZZLE   51  48  89 E3        29.77F FOG
ANNAPOLIS      CLOUDY    47  45  93 SE7       29.79S
ANDREWS AFB    CLOUDY    53  50  92 S3        29.77F
PHILADELPHIA   LGT RAIN  49  46  90 E8        29.81F FOG
HENDERSON NC   CLOUDY    57  54  89 SW7       29.80S
GREENSBORO     CLOUDY    56  53  90 W8        29.79F
ROCKY MOUNT    CLOUDY    63  58  83 SW8       29.81F
$$

VAZ100-252000-
MARINE

STATION/POSITION TIME  TEMP    WIND        PRES    WAVE   SWELL
                       AIR SEA DIR/SP/G            HT/PER HT/PER
                 (UTC) (F)     (DEG/KT/KT) (MB)    (FT/S) (FT/S)
CAPE MAY NJ      1830   47 43  100/  6/  8 1009.2F
LEWES DE         1830   47 44  150/  5/  7 1009.2F
15NM E FENWICK I 1850   48 47  150/ 10/ 12 1006.1F   3/10   3/10
OCEAN-CITY-INLET 1830   46 44  220/  7/  8 1010.0F
WACHAPREAGUE VA  1830   52 47  220/ 10/ 13 1008.7F
THOMAS POINT MD  1900   46 43     CALM     1009.4F
GOOSES REEF MD   1836   46     170/  2/  4 1008.9F
SOLOMONS ISLAND  1830   47 44   60/  2/  3 1008.4F
BISHOPS HEAD MD  1830   48 46  170/  7/  8 1008.3F
PINEY POINT MD   1830           CALM  /  1   N/A
POTOMAC MD       1854   46 44  130/  6/ 12 1008.5F
CAMBRIDGE MD     1830   51 44  150/  3/  4 1008.7F
LEWISETTA VA     1830   51 43  340/  3/  3 1008.5F
RAPPAHANNOCK LGT 1830          170/ 14/ 15 1009.4F
STINGRAY PT      1848      45  190/  8/  8 1011.8F
YORK RVR RNG VA  1830   52     200/ 12/ 13 1009.0F
YORKTOWN VA      1830   59 46  190/  6/ 11 1008.0F
DOMINION TERM VA 1830   57     220/  6/ 10 1009.0F
KIPTOPEKE VA     1830      45  170/  9/ 10   N/A
CAPE HENRY VA    1830   63     180/  8/ 14 1008.9F
WILLOUBY STN VA  1830   60     190/ 13/ 16 1008.1F
S CRANEY ISL VA  1830   60     210/  7/ 10 1008.5F
CAPE HENRY BUOY  1900      46                N/A     3/ 8   2/11
1ST LANDING BUOY 1850          210/  8/  8 1008.5F
DUCK PIER NC     1830   60     190/ 11/ 14 1009.3F
44100 DUCK FRF   1900      48                N/A     3/11   2/11
44056 DUCK FRF   1900      48                N/A     2/10   2/11
OREGON INLET NC  1830   55 48  180/  8/ 10 1010.1F
HATTERAS NC      1830   62 56  240/  7/ 11 1010.4F
DIAMOND SHLS NC  1850   67 72  220/  8/ 12 1010.5F   6/ 9   5/ 9
CAPE LOOKOUT NC  1900   63     220/  6/  8 1010.9F
$$



USA.gov is the U.S. government's official web portal to all federal, state and local government web resources and services.